EW9766 Weather Reports


time (UTC)temp
C
wind
direction
speed
KPH
gust
KPH
rain 1hr
cm
rain 24hr
cm
rain mn
cm
humidity
%
barometer
mb
20260506043035 11 193 4.8 6.4 0.00 0.00 0.00 80 1015.8
20260506041535 12 309 0.0 4.8 0.00 0.00 0.00 78 1015.7
20260506040043 12 305 0.0 3.2 0.00 0.00 0.00 76 1015.5
20260506034607 13 129 0.0 3.2 0.00 0.00 0.00 73 1015.2
20260506033040 14 112 0.0 3.2 0.00 0.00 0.00 70 1015.0
20260506031530 15 219 0.0 6.4 0.00 0.00 0.00 66 1014.8
20260506030031 17 261 1.6 4.8 0.00 0.00 0.00 62 1014.6
20260506024531 18 318 1.6 8.0 0.00 0.00 0.00 60 1014.5
20260506023107 19 339 4.8 11.3 0.00 0.00 0.00 58 1014.4
20260506021532 20 1 8.0 12.9 0.00 0.00 0.00 57 1014.4
20260506020034 20 5 8.0 16.1 0.00 0.00 0.00 56 1014.2
20260506014533 21 357 11.3 17.7 0.00 0.00 0.00 54 1014.1
20260506013032 22 5 12.9 19.3 0.00 0.00 0.00 52 1014.0
20260506010107 22 354 9.7 16.1 0.00 0.00 0.00 51 1014.0
20260506000031 22 348 11.3 17.7 0.00 0.00 0.00 53 1014.1
20260505234534 23 351 11.3 17.7 0.00 0.00 0.00 53 1014.2
20260505233032 23 349 11.3 17.7 0.00 0.00 0.00 52 1014.3
20260505231531 22 354 11.3 17.7 0.00 0.00 0.00 52 1014.3
20260505230108 23 8 11.3 17.7 0.00 0.00 0.00 52 1014.3
20260505224607 23 348 8.0 12.9 0.00 0.00 0.00 51 1014.5
20260505214535 23 345 8.0 17.7 0.00 0.00 0.00 51 1014.8
20260505211531 22 338 8.0 17.7 0.00 0.00 0.00 52 1014.9
20260505204536 22 341 6.4 14.5 0.00 0.00 0.00 51 1015.2
20260505201532 22 330 8.0 14.5 0.00 0.00 0.00 53 1015.2
20260505194530 21 355 8.0 16.1 0.00 0.00 0.00 54 1015.3
20260505193032 21 347 8.0 19.3 0.00 0.00 0.00 54 1015.4
20260505191531 21 330 6.4 12.9 0.00 0.00 0.00 55 1015.5
20260505190035 21 355 8.0 14.5 0.00 0.00 0.00 55 1015.6
20260505184534 20 20 6.4 14.5 0.00 0.00 0.00 57 1015.6
20260505181530 19 14 8.0 17.7 0.00 0.00 0.00 58 1015.6
20260505180035 18 7 9.7 17.7 0.00 0.00 0.00 59 1015.6
20260505174532 18 8 9.7 17.7 0.00 0.00 0.00 59 1015.5
20260505173029 18 18 8.0 14.5 0.00 0.00 0.00 61 1015.4
20260505170033 18 342 9.7 14.5 0.00 0.00 0.00 62 1015.4
20260505164535 17 341 9.7 16.1 0.00 0.00 0.00 64 1015.3
20260505161605 16 354 8.0 14.5 0.00 0.00 0.00 65 1015.3
20260505153030 15 340 4.8 8.0 0.00 0.00 0.00 68 1015.2
20260505151533 15 342 4.8 8.0 0.00 0.00 0.00 69 1015.1
20260505124531 9 138 8.0 12.9 0.00 0.00 0.00 81 1014.2
20260505123031 9 140 6.4 9.7 0.00 0.00 0.00 81 1014.1
20260505121534 9 142 6.4 11.3 0.00 0.00 0.00 81 1014.1
20260505120134 10 137 6.4 9.7 0.00 0.00 0.00 80 1014.2
20260505113032 10 135 6.4 9.7 0.00 0.00 0.00 80 1014.1
20260505111607 10 135 6.4 11.3 0.00 0.00 0.00 80 1014.0
20260505101531 10 106 4.8 6.4 0.00 0.00 0.00 77 1013.8
20260505100107 10 91 6.4 9.7 0.00 0.00 0.00 76 1013.6
20260505094535 11 80 4.8 9.7 0.00 0.00 0.00 74 1013.6
20260505093037 11 136 8.0 12.9 0.00 0.00 0.00 73 1013.5
20260505091634 11 139 9.7 14.5 0.00 0.00 0.00 72 1013.4
20260505084532 12 144 9.7 16.1 0.00 0.00 0.00 72 1013.3
20260505083033 12 138 9.7 14.5 0.00 0.00 0.00 71 1013.4
20260505081535 12 136 9.7 16.1 0.00 0.00 0.00 71 1013.3
20260505080031 12 135 8.0 14.5 0.00 0.00 0.00 71 1013.4
20260505074530 12 135 8.0 11.3 0.00 0.00 0.00 71 1013.4
20260505073031 12 139 8.0 14.5 0.00 0.00 0.00 71 1013.3
20260505071530 13 144 8.0 12.9 0.00 0.00 0.00 73 1013.2
20260505070031 13 98 1.6 6.4 0.00 0.00 0.00 75 1013.1
20260505064605 12 118 1.6 8.0 0.00 0.00 0.00 75 1013.2
20260505063029 12 106 3.2 6.4 0.00 0.00 0.00 73 1013.2
20260505061536 12 115 3.2 6.4 0.00 0.00 0.00 71 1013.2
20260505060107 13 105 1.6 6.4 0.00 0.00 0.00 68 1013.2